When you browse on this site, cookies collect data to enhance your experience and personalize the content and advertising you see.
Visit our Privacy Policy to learn more. By continuing to use the site, you agree to this use of cookies and data.
  • In Latvia
  • List of Countries
  • For 7 days
  • Water Temperature
  • Weather Map
  • Weather Widgets
  • user-avatar
    Login

    Hourly Weather Zurawia

    Today, 22 October, Tuesday

    Time Temperature Precipitation Wind Pressure Humidity
    00:00 +15°C° 0 mm 2 mps 749 mmHg 76%
    01:00 +15°C° 0 mm 2 mps 749 mmHg 77%
    02:00 +15°C° 0 mm 2 mps 749 mmHg 78%
    03:00 +14°C° 0 mm 2 mps 749 mmHg 80%
    04:00 +14°C° 0 mm 1 mps 749 mmHg 82%
    05:00 +14°C° 0 mm 1 mps 750 mmHg 83%
    06:00 +14°C° 0 mm 2 mps 750 mmHg 85%
    07:00 +14°C° 0 mm 2 mps 750 mmHg 86%
    08:00 +15°C° 0 mm 2 mps 750 mmHg 81%
    09:00 +17°C° 0 mm 2 mps 750 mmHg 75%
    10:00 +19°C° 0 mm 2 mps 750 mmHg 69%
    11:00 +19°C° 0 mm 2 mps 750 mmHg 66%
    12:00 +21°C° 0 mm 1 mps 750 mmHg 63%
    13:00 +22°C° 0 mm 1 mps 750 mmHg 60%
    14:00 +21°C° 0 mm 1 mps 750 mmHg 64%
    15:00 +21°C° 0 mm 1 mps 750 mmHg 68%
    16:00 +20°C° 0 mm 1 mps 749 mmHg 71%
    17:00 +19°C° 0 mm 1 mps 750 mmHg 75%
    18:00 +18°C° 0 mm 1 mps 750 mmHg 79%
    19:00 +15°C° 0 mm 0 mps 750 mmHg 83%
    20:00 +16°C° 0 mm 1 mps 750 mmHg 85%
    21:00 +15°C° 0 mm 1 mps 750 mmHg 87%
    22:00 +15°C° 0 mm 2 mps 750 mmHg 89%
    23:00 +15°C° 0 mm 2 mps 750 mmHg 90%

    Tomorrow, 23 October, Wednesday

    Time Temperature Precipitation Wind Pressure Humidity
    00:00 +14°C° 0 mm 2 mps 750 mmHg 91%
    01:00 +14°C° 0 mm 2 mps 750 mmHg 92%
    02:00 +14°C° 0 mm 2 mps 750 mmHg 92%
    03:00 +13°C° 0 mm 2 mps 750 mmHg 93%
    04:00 +13°C° 0 mm 2 mps 750 mmHg 94%
    05:00 +13°C° 0 mm 1 mps 750 mmHg 94%
    06:00 +12°C° 0 mm 1 mps 750 mmHg 94%
    07:00 +12°C° 0 mm 1 mps 750 mmHg 94%
    08:00 +14°C° 0 mm 1 mps 750 mmHg 86%
    09:00 +15°C° 0 mm 1 mps 750 mmHg 77%
    10:00 +16°C° 0 mm 0 mps 750 mmHg 69%
    11:00 +16°C° 0 mm 0 mps 750 mmHg 65%
    12:00 +17°C° 0 mm 0 mps 750 mmHg 61%
    13:00 +18°C° 0 mm 0 mps 750 mmHg 57%
    14:00 +19°C° 0 mm 1 mps 749 mmHg 60%
    15:00 +19°C° 0 mm 1 mps 749 mmHg 62%
    16:00 +17°C° 0 mm 2 mps 749 mmHg 65%
    17:00 +16°C° 0 mm 2 mps 749 mmHg 67%
    18:00 +15°C° 0 mm 2 mps 749 mmHg 68%
    19:00 +13°C° 0 mm 3 mps 749 mmHg 70%
    20:00 +13°C° 0 mm 3 mps 749 mmHg 74%
    21:00 +13°C° 0 mm 3 mps 748 mmHg 77%
    22:00 +12°C° 0 mm 3 mps 748 mmHg 80%
    23:00 +12°C° 0 mm 3 mps 748 mmHg 83%

    Day after tomorrow, 24 October, Thursday

    Time Temperature Precipitation Wind Pressure Humidity
    00:00 +12°C° 0 mm 3 mps 748 mmHg 86%
    01:00 +12°C° 0 mm 3 mps 748 mmHg 89%
    02:00 +12°C° 0 mm 4 mps 747 mmHg 91%
    03:00 +11°C° 0 mm 4 mps 747 mmHg 92%
    04:00 +11°C° 0 mm 4 mps 746 mmHg 93%
    05:00 +11°C° 0 mm 4 mps 746 mmHg 94%
    06:00 +12°C° 0 mm 4 mps 746 mmHg 94%
    07:00 +12°C° 0 mm 4 mps 746 mmHg 95%
    08:00 +13°C° 0 mm 5 mps 745 mmHg 87%
    09:00 +15°C° 0 mm 5 mps 745 mmHg 80%
    10:00 +16°C° 0 mm 5 mps 745 mmHg 72%
    11:00 +17°C° 0 mm 5 mps 745 mmHg 68%
    12:00 +20°C° 0 mm 5 mps 745 mmHg 63%
    13:00 +21°C° 0 mm 5 mps 744 mmHg 58%
    14:00 +20°C° 0 mm 4 mps 744 mmHg 60%
    15:00 +19°C° 0 mm 4 mps 744 mmHg 63%
    16:00 +18°C° 0 mm 3 mps 743 mmHg 66%
    17:00 +18°C° 0 mm 3 mps 743 mmHg 68%
    18:00 +17°C° 0 mm 3 mps 743 mmHg 70%
    19:00 +16°C° 0 mm 3 mps 744 mmHg 72%
    20:00 +16°C° 0 mm 3 mps 744 mmHg 72%
    21:00 +14°C° 0 mm 3 mps 744 mmHg 72%
    22:00 +14°C° 0 mm 3 mps 744 mmHg 71%
    23:00 +14°C° 0 mm 3 mps 744 mmHg 70%

    25 October, Friday

    Time Temperature Precipitation Wind Pressure Humidity
    00:00 +15°C° 0 mm 2 mps 744 mmHg 69%
    01:00 +14°C° 0 mm 2 mps 744 mmHg 69%
    02:00 +13°C° 0 mm 3 mps 745 mmHg 69%
    03:00 +13°C° 0 mm 3 mps 745 mmHg 70%
    04:00 +13°C° 0 mm 3 mps 745 mmHg 70%
    05:00 +12°C° 0 mm 3 mps 745 mmHg 72%
    06:00 +12°C° 0 mm 3 mps 746 mmHg 74%
    07:00 +12°C° 0 mm 3 mps 746 mmHg 75%
    08:00 +13°C° 0 mm 3 mps 746 mmHg 73%
    09:00 +16°C° 0 mm 3 mps 747 mmHg 71%
    10:00 +17°C° 0 mm 4 mps 747 mmHg 69%
    11:00 +18°C° 0 mm 4 mps 748 mmHg 67%
    12:00 +19°C° 0 mm 4 mps 748 mmHg 66%
    13:00 +19°C° 0 mm 4 mps 748 mmHg 64%
    14:00 +19°C° 0 mm 3 mps 748 mmHg 68%
    15:00 +18°C° 0 mm 3 mps 748 mmHg 71%
    16:00 +17°C° 0 mm 2 mps 748 mmHg 74%
    17:00 +16°C° 0 mm 2 mps 748 mmHg 78%
    18:00 +15°C° 0 mm 2 mps 748 mmHg 82%
    19:00 +15°C° 0 mm 2 mps 749 mmHg 85%
    20:00 +14°C° 0 mm 1 mps 749 mmHg 86%
    21:00 +14°C° 0 mm 1 mps 749 mmHg 87%
    22:00 +13°C° 0 mm 1 mps 749 mmHg 87%
    23:00 +13°C° 0 mm 1 mps 749 mmHg 88%

    26 October, Saturday

    Time Temperature Precipitation Wind Pressure Humidity
    00:00 +13°C° 0 mm 1 mps 748 mmHg 88%
    01:00 +13°C° 0 mm 1 mps 748 mmHg 88%
    02:00 +13°C° 0 mm 1 mps 748 mmHg 89%
    03:00 +13°C° 0 mm 2 mps 748 mmHg 90%
    04:00 +12°C° 0 mm 2 mps 747 mmHg 91%
    05:00 +12°C° 0 mm 2 mps 747 mmHg 91%
    06:00 +11°C° 0 mm 3 mps 747 mmHg 92%
    07:00 +11°C° 0 mm 3 mps 747 mmHg 92%
    08:00 +13°C° 0 mm 4 mps 747 mmHg 84%
    09:00 +15°C° 0 mm 4 mps 747 mmHg 76%
    10:00 +16°C° 0 mm 5 mps 747 mmHg 68%
    11:00 +17°C° 0 mm 5 mps 746 mmHg 64%
    12:00 +19°C° 0 mm 5 mps 746 mmHg 61%
    13:00 +20°C° 0 mm 5 mps 746 mmHg 57%
    14:00 +19°C° 0 mm 4 mps 745 mmHg 60%
    15:00 +18°C° 0 mm 4 mps 745 mmHg 63%
    16:00 +17°C° 0 mm 3 mps 745 mmHg 67%
    17:00 +17°C° 0 mm 3 mps 745 mmHg 70%
    18:00 +16°C° 0 mm 3 mps 745 mmHg 74%
    19:00 +14°C° 0 mm 3 mps 745 mmHg 77%
    20:00 +14°C° 0 mm 3 mps 745 mmHg 78%
    21:00 +13°C° 0 mm 3 mps 745 mmHg 78%
    22:00 +13°C° 0 mm 3 mps 745 mmHg 79%
    23:00 +13°C° 0 mm 3 mps 745 mmHg 79%

    27 October, Sunday

    Time Temperature Precipitation Wind Pressure Humidity
    00:00 +13°C° 0 mm 4 mps 745 mmHg 79%
    01:00 +13°C° 0 mm 4 mps 744 mmHg 79%
    02:00 +12°C° 0.1 mm 5 mps 744 mmHg 80%
    03:00 +11°C° 0.1 mm 6 mps 744 mmHg 81%
    04:00 +10°C° 0.1 mm 6 mps 744 mmHg 83%
    05:00 +10°C° 0.3 mm 6 mps 745 mmHg 82%
    06:00 +9°C° 0.3 mm 6 mps 745 mmHg 82%
    07:00 +8°C° 0.3 mm 5 mps 746 mmHg 81%
    08:00 +8°C° 0.1 mm 6 mps 746 mmHg 75%
    09:00 +8°C° 0.1 mm 6 mps 747 mmHg 69%
    10:00 +8°C° 0.1 mm 6 mps 748 mmHg 63%
    11:00 +8°C° 0 mm 7 mps 748 mmHg 58%
    12:00 +9°C° 0 mm 7 mps 748 mmHg 54%
    13:00 +9°C° 0 mm 7 mps 748 mmHg 50%
    14:00 +9°C° 0 mm 6 mps 748 mmHg 51%
    15:00 +8°C° 0 mm 5 mps 748 mmHg 53%
    16:00 +8°C° 0 mm 5 mps 748 mmHg 55%
    17:00 +7°C° 0 mm 5 mps 748 mmHg 58%
    18:00 +7°C° 0 mm 5 mps 748 mmHg 61%
    19:00 +6°C° 0 mm 5 mps 749 mmHg 64%
    20:00 +6°C° 0 mm 5 mps 749 mmHg 66%
    21:00 +6°C° 0 mm 5 mps 749 mmHg 67%
    22:00 +6°C° 0 mm 5 mps 749 mmHg 69%
    23:00 +6°C° 0 mm 5 mps 749 mmHg 70%

    28 October, Monday

    Time Temperature Precipitation Wind Pressure Humidity
    00:00 +6°C° 0 mm 5 mps 749 mmHg 71%
    01:00 +4°C° 0 mm 6 mps 748 mmHg 72%
    02:00 +4°C° 0 mm 6 mps 748 mmHg 73%
    03:00 +5°C° 0 mm 5 mps 748 mmHg 74%
    04:00 +5°C° 0 mm 5 mps 748 mmHg 74%
    05:00 +5°C° 0 mm 5 mps 748 mmHg 77%
    06:00 +3°C° 0 mm 5 mps 748 mmHg 79%
    07:00 +3°C° 0 mm 5 mps 748 mmHg 81%
    08:00 +5°C° 0 mm 5 mps 748 mmHg 76%
    09:00 +6°C° 0 mm 5 mps 748 mmHg 70%
    10:00 +7°C° 0 mm 5 mps 748 mmHg 65%
    11:00 +8°C° 0 mm 6 mps 748 mmHg 60%
    12:00 +8°C° 0 mm 6 mps 747 mmHg 56%
    13:00 +9°C° 0 mm 6 mps 747 mmHg 52%
    14:00 +8°C° 0 mm 6 mps 747 mmHg 54%
    15:00 +8°C° 0 mm 5 mps 746 mmHg 55%
    16:00 +7°C° 0 mm 5 mps 746 mmHg 57%
    17:00 +7°C° 0 mm 4 mps 746 mmHg 60%
    18:00 +6°C° 0 mm 4 mps 746 mmHg 64%
    19:00 +5°C° 0 mm 4 mps 746 mmHg 67%
    20:00 +5°C° 0 mm 4 mps 746 mmHg 69%
    21:00 +5°C° 0 mm 4 mps 746 mmHg 70%
    22:00 +3°C° 0 mm 5 mps 746 mmHg 72%
    23:00 +3°C° 0 mm 5 mps 746 mmHg 73%
    Show more